N7LK Weather Reports


time (UTC)temp
F
wind
direction
speed
knots
gust
knots
rain 1hr
in
rain 24hr
in
rain mn
in
humidity
%
barometer
mb
20260831004336 105 328 2.6 7.0 0.00 0.00 0.00 28 1005.5
20260831003327 105 333 2.6 5.2 0.00 0.00 0.00 28 1005.5
20260831002334 105 347 4.3 7.8 0.00 0.00 0.00 28 1005.5
20260831001340 105 334 2.6 9.6 0.00 0.00 0.00 28 1005.6
20260831000348 106 267 3.5 7.8 0.00 0.00 0.00 28 1005.7
20260830235333 107 275 5.2 7.8 0.00 0.00 0.00 27 1005.8
20260830234343 107 336 1.7 3.5 0.00 0.00 0.00 26 1005.8
20260830233331 107 208 0.0 7.0 0.00 0.00 0.00 27 1005.8
20260830232337 107 281 2.6 9.6 0.00 0.00 0.00 27 1006.1
20260830231345 107 250 2.6 7.0 0.00 0.00 0.00 27 1006.1
20260830230335 107 164 2.6 7.8 0.00 0.00 0.00 27 1006.2
20260830225402 107 190 4.3 8.7 0.00 0.00 0.00 26 1006.5
20260830224345 107 225 3.5 7.0 0.00 0.00 0.00 26 1006.6
20260830223333 107 243 3.5 6.1 0.00 0.00 0.00 26 1006.7
20260830222344 106 255 0.9 4.3 0.00 0.00 0.00 27 1006.8
20260830221331 106 261 2.6 7.0 0.00 0.00 0.00 26 1007.1
20260830220336 106 182 2.6 5.2 0.00 0.00 0.00 27 1007.3
20260830215344 106 223 5.2 7.0 0.00 0.00 0.00 27 1007.6
20260830214337 106 9 1.7 5.2 0.00 0.00 0.00 27 1007.8
20260830213343 105 309 1.7 5.2 0.00 0.00 0.00 28 1008.1
20260830212329 105 317 2.6 7.8 0.00 0.00 0.00 28 1008.2
20260830211336 106 267 3.5 8.7 0.00 0.00 0.00 28 1008.4
20260830210327 105 186 0.9 4.3 0.00 0.00 0.00 28 1008.6
20260830205355 104 255 1.7 5.2 0.00 0.00 0.00 28 1008.7
20260830204342 104 325 2.6 7.0 0.00 0.00 0.00 29 1009.1
20260830203330 104 195 1.7 5.2 0.00 0.00 0.00 29 1009.2
20260830202341 103 71 0.9 4.3 0.00 0.00 0.00 30 1009.4
20260830201327 103 67 2.6 7.0 0.00 0.00 0.00 29 1009.6
20260830200336 103 330 2.6 7.0 0.00 0.00 0.00 29 1009.7
20260830195327 103 349 3.5 7.0 0.00 0.00 0.00 29 1009.8
20260830194334 103 150 1.7 4.3 0.00 0.00 0.00 29 1009.9
20260830193341 103 287 0.9 2.6 0.00 0.00 0.00 30 1010.1
20260830192347 102 155 2.6 4.3 0.00 0.00 0.00 31 1010.3
20260830191333 102 298 1.7 7.8 0.00 0.00 0.00 31 1010.5
20260830190406 102 216 3.5 7.8 0.00 0.00 0.00 31 1010.6
20260830185331 101 192 1.7 7.0 0.00 0.00 0.00 31 1010.8
20260830184340 101 186 2.6 7.0 0.00 0.00 0.00 33 1010.9
20260830183347 100 59 2.6 7.0 0.00 0.00 0.00 32 1011.1
20260830182339 100 46 3.5 6.1 0.00 0.00 0.00 32 1011.2
20260830181343 100 208 1.7 4.3 0.00 0.00 0.00 32 1011.4
20260830180329 100 153 1.7 7.0 0.00 0.00 0.00 33 1011.5
20260830175335 100 185 3.5 7.8 0.00 0.00 0.00 33 1011.6
20260830174345 99 175 1.7 4.3 0.00 0.00 0.00 33 1011.7
20260830173333 99 151 5.2 9.6 0.00 0.00 0.00 34 1011.8
20260830172340 98 60 3.5 7.8 0.00 0.00 0.00 35 1011.8
20260830171326 98 134 3.5 7.0 0.00 0.00 0.00 35 1011.8
20260830170337 97 146 2.6 9.6 0.00 0.00 0.00 36 1011.8
20260830165326 97 132 4.3 8.7 0.00 0.00 0.00 36 1011.8
20260830164334 96 70 1.7 7.8 0.00 0.00 0.00 36 1011.8
20260830163341 96 82 2.6 7.0 0.00 0.00 0.00 36 1011.8
20260830162331 95 92 4.3 7.8 0.00 0.00 0.00 37 1011.9
20260830161338 95 73 2.6 7.0 0.00 0.00 0.00 37 1011.8
20260830160345 94 150 3.5 7.8 0.00 0.00 0.00 37 1011.8
20260830155332 93 109 4.3 7.8 0.00 0.00 0.00 39 1011.8
20260830154343 93 162 3.5 9.6 0.00 0.00 0.00 40 1011.8
20260830153331 92 162 5.2 9.6 0.00 0.00 0.00 40 1011.8
20260830152337 92 109 3.5 9.6 0.00 0.00 0.00 42 1011.8
20260830151329 91 95 2.6 8.7 0.00 0.00 0.00 42 1011.8
20260830150356 90 140 3.5 9.6 0.00 0.00 0.00 43 1011.7
20260830145400 90 96 4.3 7.8 0.00 0.00 0.00 44 1011.8
20260830144346 90 100 4.3 12.2 0.00 0.00 0.00 44 1011.9
20260830143332 89 101 4.3 8.7 0.00 0.00 0.00 44 1011.9
20260830142344 89 74 2.6 7.0 0.00 0.00 0.00 43 1011.8
20260830141331 89 133 1.7 8.7 0.00 0.00 0.00 44 1011.7
20260830140335 88 132 3.5 10.4 0.00 0.00 0.00 44 1011.6
20260830135341 88 91 2.6 8.7 0.00 0.00 0.00 44 1011.5
20260830134331 87 116 1.7 10.4 0.00 0.00 0.00 45 1011.4
20260830133355 87 119 2.6 9.6 0.00 0.00 0.00 46 1011.3
20260830132335 87 97 2.6 7.8 0.00 0.00 0.00 46 1011.1
20260830131343 87 78 0.9 6.1 0.00 0.00 0.00 47 1011.0
20260830130329 87 58 2.6 5.2 0.00 0.00 0.00 47 1010.8
20260830125340 87 92 1.7 5.2 0.00 0.00 0.00 47 1010.7
20260830124326 87 65 1.7 3.5 0.00 0.00 0.00 48 1010.4
20260830123332 87 67 0.0 1.7 0.00 0.00 0.00 48 1010.2
20260830122339 88 78 0.0 1.7 0.00 0.00 0.00 47 1010.0
20260830121331 88 58 0.0 4.3 0.00 0.00 0.00 47 1010.0
20260830120337 88 103 2.6 7.0 0.00 0.00 0.00 47 1010.0
20260830115344 88 100 1.7 6.1 0.00 0.00 0.00 47 1010.0
20260830114352 89 74 3.5 8.7 0.00 0.00 0.00 46 1010.0
20260830113342 89 75 3.5 7.8 0.00 0.00 0.00 45 1009.9
20260830112327 89 107 3.5 7.8 0.00 0.00 0.00 45 1009.8
20260830111336 89 169 2.6 8.7 0.00 0.00 0.00 45 1009.7
20260830110341 89 160 0.9 7.8 0.00 0.00 0.00 45 1009.6
20260830105333 89 150 0.9 6.1 0.00 0.00 0.00 44 1009.7
20260830104340 89 140 1.7 2.6 0.00 0.00 0.00 44 1009.8
20260830103328 88 179 1.7 4.3 0.00 0.00 0.00 44 1009.7
20260830102339 88 205 0.9 2.6 0.00 0.00 0.00 44 1009.6
20260830101325 88 173 0.9 2.6 0.00 0.00 0.00 45 1009.5
20260830100334 88 223 0.0 1.7 0.00 0.00 0.00 45 1009.5
20260830095341 88 219 0.9 2.6 0.00 0.00 0.00 45 1009.5
20260830094330 88 251 0.0 1.7 0.00 0.00 0.00 45 1009.5
20260830093337 88 56 0.0 0.9 0.00 0.00 0.00 45 1009.2
20260830092343 88 56 0.0 1.7 0.00 0.00 0.00 45 1009.2
20260830091331 88 56 0.0 0.9 0.00 0.00 0.00 45 1009.2
20260830090342 89 56 0.0 0.9 0.00 0.00 0.00 45 1009.1
20260830085329 89 56 0.0 0.0 0.00 0.00 0.00 44 1009.2
20260830084336 89 56 0.0 1.7 0.00 0.00 0.00 45 1009.2
20260830083342 89 56 0.0 2.6 0.00 0.00 0.00 45 1009.2
20260830082333 89 67 0.9 3.5 0.00 0.00 0.00 45 1009.4
20260830081401 90 71 0.9 6.1 0.00 0.00 0.00 44 1009.4
20260830080326 90 49 3.5 5.2 0.00 0.00 0.00 43 1009.4
20260830075333 90 22 0.9 2.6 0.00 0.00 0.00 41 1009.3
20260830074344 90 75 0.9 3.5 0.00 0.00 0.00 41 1009.2
20260830073330 90 124 3.5 7.0 0.00 0.00 0.00 41 1009.0
20260830072335 90 118 3.5 7.8 0.00 0.00 0.00 42 1009.1
20260830071343 90 109 5.2 11.3 0.00 0.00 0.00 42 1009.0
20260830070355 90 59 4.3 12.2 0.00 0.00 0.00 43 1009.1
20260830065339 90 94 5.2 13.0 0.00 0.00 0.00 43 1009.2
20260830064326 90 129 6.1 15.6 0.00 0.00 0.00 43 1009.2
20260830063334 91 92 7.8 14.8 0.00 0.00 0.00 42 1009.2
20260830062339 92 81 7.0 20.0 0.00 0.00 0.00 41 1009.3
20260830061330 93 88 7.8 13.9 0.00 0.00 0.00 39 1009.3
20260830060337 93 109 7.8 15.6 0.00 0.00 0.00 38 1009.1
20260830055344 94 98 6.1 20.9 0.00 0.00 0.00 37 1009.1
20260830054335 95 142 6.1 17.4 0.00 0.00 0.00 35 1008.8
20260830053341 96 158 10.4 20.9 0.00 0.00 0.00 36 1008.7
20260830052348 98 105 6.1 11.3 0.00 0.00 0.00 32 1008.7
20260830051334 98 124 4.3 8.7 0.00 0.00 0.00 32 1008.1
20260830050340 99 163 6.1 13.0 0.00 0.00 0.00 32 1007.9
20260830045352 100 184 8.7 15.6 0.00 0.00 0.00 30 1008.0
20260830044337 101 158 5.2 13.0 0.00 0.00 0.00 29 1007.9
20260830043343 103 132 6.1 17.4 0.00 0.00 0.00 26 1007.7
20260830042331 104 176 2.6 5.2 0.00 0.00 0.00 26 1007.4
20260830041340 104 211 3.5 7.0 0.00 0.00 0.00 26 1007.1
20260830040327 104 210 2.6 7.8 0.00 0.00 0.00 25 1007.0
20260830035334 104 220 3.5 7.0 0.00 0.00 0.00 25 1007.0
20260830034402 105 221 3.5 6.1 0.00 0.00 0.00 24 1006.8
20260830033331 105 269 2.6 8.7 0.00 0.00 0.00 24 1006.5
20260830032358 105 188 1.7 7.8 0.00 0.00 0.00 23 1006.3
20260830031344 105 195 2.6 9.6 0.00 0.00 0.00 23 1006.1
20260830030331 105 246 3.5 8.7 0.00 0.00 0.00 23 1006.0
20260830025341 106 223 2.6 7.0 0.00 0.00 0.00 23 1005.8
20260830024328 106 279 5.2 9.6 0.00 0.00 0.00 22 1005.6
20260830023335 106 246 5.2 10.4 0.00 0.00 0.00 22 1005.4
20260830022343 106 279 3.5 8.7 0.00 0.00 0.00 22 1005.3
20260830021334 106 261 5.2 8.7 0.00 0.00 0.00 22 1005.1
20260830020341 106 248 6.1 11.3 0.00 0.00 0.00 22 1005.0
20260830015329 107 241 3.5 10.4 0.00 0.00 0.00 22 1005.0
20260830014335 107 247 3.5 10.4 0.00 0.00 0.00 22 1004.9
20260830013328 108 219 0.9 7.0 0.00 0.00 0.00 22 1005.0
20260830012334 108 281 0.9 11.3 0.00 0.00 0.00 21 1004.9
20260830011339 108 228 3.5 7.0 0.00 0.00 0.00 21 1004.9
20260830010345 109 232 1.7 7.0 0.00 0.00 0.00 21 1004.9
20260830005337 109 234 4.3 9.6 0.00 0.00 0.00 21 1004.9